GFSSE_925_thetae_159.txt.gz
Theta_e
336 338 338 339 338 339 338 339 333 330 331 333 334 335 334 333 332 329 329 329 328 329 328 328 327 327 327 326 326 326 328 330 331 333 333 332 333 333 331 327 327 328 327
335 338 338 338 338 339 338 337 334 335 335 334 332 333 334 333 331 330 329 327 328 328 327 327 326 325 325 327 322 324 328 331 330 329 330 329 330 330 328 326 327 326 325
335 338 338 338 338 339 337 335 333 333 334 334 332 333 334 331 330 328 328 327 327 326 326 327 326 326 325 327 325 324 325 329 328 327 326 328 328 328 327 326 326 325 323
336 338 338 338 338 338 335 333 332 333 333 334 333 332 333 331 330 332 327 327 326 326 326 326 326 325 323 324 324 326 325 325 327 325 325 325 325 326 325 325 324 323 323
336 337 338 338 337 336 334 334 332 331 332 330 333 333 332 331 329 329 327 326 327 326 326 326 325 325 325 324 325 325 326 326 326 324 324 323 324 324 324 322 322 321 321
336 337 338 338 337 335 334 335 334 332 333 331 330 334 332 330 328 328 326 326 325 325 325 325 325 324 323 323 324 326 326 327 327 325 323 322 322 323 322 320 321 320 320
335 337 337 337 336 334 334 335 334 332 331 330 328 335 332 330 325 326 326 325 325 325 325 325 324 324 324 324 326 326 325 327 325 324 323 321 322 321 321 320 320 320 320
335 336 336 337 335 334 334 333 332 331 330 329 329 328 333 329 325 326 326 325 324 324 324 324 323 324 323 324 325 325 322 322 321 321 321 321 321 321 320 319 319 319 318
335 336 335 336 335 335 334 331 331 330 329 328 328 330 327 328 327 326 325 325 325 325 325 323 321 323 322 323 321 323 324 322 322 321 320 320 320 322 320 319 318 318 318
335 335 335 335 335 335 333 330 331 330 329 328 327 328 326 326 327 326 325 323 325 325 324 318 316 318 321 323 323 321 322 322 322 321 321 320 321 321 320 319 318 318 317
336 335 335 335 334 334 333 331 331 330 329 328 327 325 327 325 327 326 326 324 324 324 323 318 316 315 318 322 322 322 322 322 322 322 321 319 320 322 320 318 317 317 316
337 336 335 335 335 334 333 332 331 331 329 329 327 325 326 326 325 326 326 324 324 323 323 320 316 316 316 321 321 321 322 322 321 321 319 318 319 322 321 318 317 317 316
336 336 336 336 335 334 334 333 332 331 330 329 328 326 324 324 324 325 326 325 324 324 323 323 317 316 316 317 321 320 320 320 320 319 318 318 318 322 321 319 318 317 316
335 336 336 336 335 335 334 334 333 332 331 330 328 327 326 324 323 323 325 325 324 324 323 322 320 317 316 316 316 319 319 319 318 318 319 318 316 319 322 320 319 318 317
334 334 334 335 336 335 335 335 334 332 331 331 330 328 326 325 324 322 321 323 324 324 323 323 322 320 317 316 316 317 318 319 319 319 318 319 317 316 321 321 320 319 318
330 332 333 334 334 335 335 335 335 334 332 331 331 330 328 326 325 325 323 321 323 323 323 323 323 322 321 318 317 316 318 319 320 320 319 319 319 317 315 321 321 320 319
320 321 324 326 330 333 334 335 335 335 333 332 331 330 330 329 327 326 325 323 321 321 322 322 323 323 323 322 319 317 317 318 319 320 320 320 319 318 317 316 321 321 321
319 319 320 321 322 326 331 332 333 335 334 333 332 331 330 330 330 328 326 325 324 322 321 322 322 322 323 322 321 317 317 317 318 319 319 319 319 319 319 317 317 319 321
317 318 319 319 320 323 326 330 331 333 333 332 331 332 332 331 330 330 328 327 326 324 321 321 321 321 321 321 322 321 318 317 318 319 320 319 319 319 319 319 318 317 317
314 315 316 317 318 319 323 327 330 331 331 331 331 331 331 332 331 329 329 328 327 325 323 322 321 320 321 320 320 320 320 319 318 319 320 320 320 320 320 320 320 320 319
311 312 313 315 316 318 323 328 329 329 330 330 331 330 330 329 331 331 330 328 327 326 325 324 322 320 320 320 319 320 318 318 318 318 318 319 320 320 320 320 320 320 320
309 310 311 312 313 315 318 323 326 327 328 328 329 329 331 329 330 330 330 328 326 325 324 324 322 321 320 320 319 319 320 318 318 318 318 318 317 318 319 319 320 320 320
307 309 310 310 311 313 314 320 326 327 328 328 328 328 329 329 328 328 329 328 326 325 324 324 323 321 321 320 319 320 320 320 316 316 317 317 318 318 318 318 318 318 320
304 306 310 313 314 312 313 320 325 327 327 327 327 328 328 328 328 327 327 327 326 326 324 324 323 322 321 322 318 319 320 319 319 319 315 316 317 317 317 317 317 317 318
301 303 304 305 313 319 320 318 323 326 327 327 327 327 327 327 327 327 326 326 326 325 325 324 323 322 322 321 322 320 318 319 319 318 320 318 316 316 316 316 317 318 318
299 301 301 301 302 306 315 319 322 325 327 327 327 327 327 327 327 327 327 326 325 325 325 324 324 323 322 321 321 322 320 319 319 319 319 318 317 316 316 316 316 317 317

GFSSE_925_thetae_162.txt.gz
Theta_e
339 342 338 338 339 338 338 337 334 334 335 334 335 335 335 333 328 330 330 328 328 329 328 327 327 328 328 331 330 332 330 333 334 333 333 333 333 332 330 327 327 325 325
340 342 339 338 338 339 337 335 331 333 334 334 333 334 334 333 332 330 327 327 327 328 328 327 325 328 328 323 324 331 331 330 330 330 330 330 330 329 328 327 326 325 324
340 342 341 338 338 339 336 334 333 334 333 333 333 333 333 332 331 330 327 326 329 329 328 327 327 326 328 325 324 326 329 327 327 327 328 329 328 328 327 326 325 324 324
340 342 341 338 337 338 335 333 333 333 332 332 333 332 331 331 329 328 327 327 327 327 326 326 326 325 325 326 326 325 325 327 325 325 326 326 326 326 325 324 324 323 323
340 341 341 337 338 337 334 333 333 333 331 331 333 331 332 331 331 329 326 327 326 327 326 326 325 325 324 323 325 325 325 326 325 326 325 325 324 324 323 322 322 322 322
340 341 338 337 337 336 334 335 333 332 333 330 330 333 331 330 329 327 326 326 326 326 326 326 326 325 323 324 326 327 326 327 327 327 325 323 324 323 322 321 321 321 321
340 340 340 337 337 335 334 334 334 333 332 331 325 334 331 329 326 327 326 326 325 325 326 326 325 323 323 324 326 326 326 326 326 325 324 323 323 321 321 321 320 320 319
339 340 340 337 336 334 334 334 333 332 331 330 328 330 332 329 325 326 326 325 325 325 325 325 324 324 324 324 326 324 322 323 324 324 323 323 322 321 321 320 320 320 319
339 340 340 339 337 335 334 333 332 331 330 329 328 330 330 330 327 326 325 324 325 325 325 324 323 324 323 323 324 324 323 322 324 324 323 322 321 322 321 320 319 319 318
339 339 339 339 339 338 337 333 330 331 329 328 327 329 328 326 328 327 326 324 324 324 325 324 320 323 322 323 322 323 323 322 323 324 323 323 321 322 321 320 319 319 318
338 338 339 339 339 338 338 336 331 331 330 329 328 327 328 327 328 327 326 326 324 324 323 323 318 317 318 322 323 322 322 323 323 323 323 322 320 322 321 319 318 318 318
338 337 338 338 338 338 337 335 334 334 332 332 330 329 327 327 327 328 327 326 324 324 323 323 319 317 316 320 322 322 323 323 323 323 322 320 318 323 322 319 318 318 317
338 338 337 337 337 338 337 336 336 335 333 333 331 330 328 327 327 326 327 327 326 325 325 325 325 322 321 319 320 322 322 322 322 322 321 318 318 323 323 321 319 318 317
335 336 337 338 336 335 337 337 336 336 334 333 331 330 329 327 327 326 325 327 327 326 326 326 325 324 322 320 319 320 321 321 320 320 320 319 318 318 324 322 320 319 318
330 332 334 336 337 336 335 337 337 336 335 334 332 330 329 328 327 326 325 325 326 326 325 325 325 324 323 321 320 319 319 320 320 320 320 319 318 317 320 323 322 320 319
323 325 327 332 334 336 336 335 336 335 335 335 333 332 330 328 328 327 326 325 324 325 325 325 325 324 324 323 321 320 319 319 320 321 321 320 319 318 316 321 323 322 320
320 321 323 325 329 332 333 335 335 335 334 335 334 333 331 329 328 327 327 326 325 324 324 324 324 324 324 324 323 322 321 320 319 320 321 321 320 319 318 317 321 323 323
317 318 320 322 324 327 329 331 333 335 335 335 335 333 332 331 329 329 328 327 326 325 324 324 323 323 323 323 323 322 321 320 319 319 320 320 320 320 319 318 317 320 322
316 316 317 318 321 324 327 329 331 333 333 334 334 333 332 330 330 330 329 328 327 326 325 324 324 323 323 322 322 322 321 321 320 319 319 320 320 320 320 319 318 318 317
313 314 315 316 318 321 324 327 329 330 331 332 331 331 332 331 330 329 329 329 328 327 326 325 325 324 323 322 321 321 321 321 321 320 320 320 320 320 320 320 319 319 319
312 312 312 313 315 317 322 326 327 328 329 329 330 330 329 329 328 329 330 330 329 327 327 327 326 325 324 322 321 321 321 321 321 321 320 319 319 320 320 319 319 319 319
310 311 312 312 312 314 319 323 324 325 327 328 329 329 329 328 328 327 328 329 329 326 327 327 326 325 324 323 320 320 322 322 321 320 320 319 319 319 320 319 319 318 319
308 308 310 312 314 315 314 318 322 325 327 327 328 329 330 328 327 327 326 326 327 327 325 325 326 325 325 323 321 322 324 325 322 319 319 320 320 320 320 319 319 318 319
305 305 305 306 309 312 319 318 322 324 325 325 326 328 329 329 329 328 327 326 325 326 325 325 325 324 324 324 322 321 322 324 325 326 321 318 317 319 319 320 319 319 319
302 303 302 302 303 306 310 319 324 326 326 327 327 328 328 329 329 329 328 326 326 325 326 325 325 324 323 323 324 321 319 321 322 323 325 324 320 318 318 318 319 319 318
300 300 301 300 299 301 303 306 309 313 317 321 321 326 327 328 328 327 327 328 327 327 326 325 325 324 323 322 323 323 322 320 320 321 321 322 324 323 319 317 318 317 316

GFSSE_925_thetae_165.txt.gz
Theta_e
341 341 338 338 338 339 335 333 332 331 333 335 334 335 333 328 330 333 330 330 329 329 329 329 330 332 333 333 333 333 334 333 334 333 333 332 331 330 328 325 325 325 325
341 342 338 338 339 338 338 332 331 333 331 333 333 332 333 332 331 329 327 329 329 329 328 327 330 330 331 331 332 331 331 330 330 330 330 330 329 328 327 326 325 325 325
341 342 340 338 338 338 335 333 334 334 332 329 331 331 330 332 332 329 327 328 327 328 327 327 327 330 326 325 329 329 328 327 327 328 329 330 328 328 327 326 325 325 324
342 341 342 337 337 337 334 333 333 332 332 331 331 332 330 330 331 328 327 326 327 327 328 326 326 327 328 328 327 325 327 326 325 327 327 327 327 326 325 325 324 324 323
341 341 342 337 337 337 334 333 333 332 330 330 331 328 329 331 332 328 327 326 325 326 326 326 324 324 323 324 327 325 325 325 325 327 326 326 325 324 323 323 322 323 322
340 341 340 337 337 336 334 334 333 333 332 328 332 332 330 327 329 327 326 326 326 326 327 326 326 325 324 325 327 326 326 326 328 327 326 324 324 323 322 321 321 321 320
341 341 340 338 337 336 334 334 334 333 333 331 326 333 331 328 325 326 326 325 325 325 325 326 325 324 323 324 327 327 326 326 328 326 324 324 323 322 322 321 321 321 320
340 340 340 338 337 335 334 334 334 333 332 331 328 330 332 329 327 326 325 325 325 324 325 325 325 324 323 324 327 325 324 324 324 325 324 324 322 321 321 321 320 320 320
340 340 340 340 338 335 334 334 333 332 331 330 329 329 333 330 327 325 326 325 325 324 325 325 323 324 323 323 325 325 323 322 325 324 323 323 323 322 322 320 320 319 319
339 339 339 339 339 338 338 335 333 331 330 329 329 328 330 328 329 326 326 324 324 324 324 323 323 321 323 322 323 322 324 323 321 324 323 324 322 322 322 320 319 319 318
339 339 339 339 338 338 338 338 336 331 331 330 328 327 329 329 328 329 328 326 326 324 324 323 322 317 319 320 322 322 322 323 323 323 323 323 321 323 322 321 320 319 319
339 339 339 339 339 338 338 337 336 335 334 333 331 331 328 329 327 329 329 327 325 325 324 323 323 320 316 318 321 321 322 322 323 323 323 323 321 322 323 321 320 319 318
336 338 338 339 339 339 338 337 336 335 335 334 334 332 332 329 329 328 328 328 327 326 326 325 325 324 321 320 319 321 322 322 322 322 322 322 319 320 324 323 320 319 319
332 334 336 338 338 338 339 338 337 336 335 335 334 334 332 330 329 329 327 327 328 327 327 326 325 325 324 323 321 319 321 322 321 321 321 320 319 318 322 326 323 319 319
325 326 329 333 336 338 337 338 337 337 336 335 335 334 333 331 330 329 328 327 327 327 326 326 326 326 325 324 322 321 320 319 320 321 320 320 320 318 317 322 325 322 320
321 321 323 326 330 334 337 337 336 337 337 337 336 335 333 332 331 330 329 328 327 326 326 326 325 325 325 324 324 322 321 320 319 320 321 321 321 320 318 318 322 325 323
319 319 320 322 324 328 332 334 336 335 336 336 336 335 335 333 332 331 330 329 328 327 326 326 325 325 324 324 324 324 323 322 321 320 320 321 321 321 319 318 319 322 325
318 319 319 320 321 324 327 329 331 333 335 334 334 335 335 334 333 332 331 330 329 328 327 326 326 325 324 324 323 323 323 323 322 321 320 320 321 321 321 320 318 318 321
316 317 317 318 319 321 324 326 328 331 333 334 334 335 334 334 333 332 332 331 330 329 328 327 327 326 325 324 324 323 323 322 322 322 320 320 320 321 321 320 319 318 318
315 315 315 316 317 318 320 324 326 328 331 332 333 332 332 333 332 331 331 332 331 330 329 328 327 327 326 326 325 323 322 322 322 322 322 321 320 320 321 320 320 319 317
314 315 315 315 315 316 318 322 325 327 329 330 331 330 329 330 329 329 329 330 331 330 329 328 328 327 327 326 325 324 324 323 323 323 322 322 322 321 320 321 321 321 319
312 312 313 314 316 317 315 319 323 325 326 327 329 330 330 328 328 328 327 327 329 329 329 328 328 328 327 326 323 322 323 324 324 324 323 323 322 321 321 321 321 321 321
310 309 309 310 313 315 321 316 318 322 325 326 328 329 329 329 327 327 327 326 327 327 328 327 327 327 327 326 324 324 323 325 326 326 324 323 322 321 321 320 321 321 321
307 307 306 307 309 311 315 322 321 323 325 325 326 327 327 328 328 327 326 326 326 326 326 326 326 325 326 326 325 323 324 325 326 327 326 323 321 321 321 321 321 321 321
305 305 304 303 304 307 309 313 320 322 325 325 325 327 328 328 329 328 328 328 327 326 326 326 326 325 325 325 325 323 321 322 322 323 325 324 325 322 321 320 320 320 320
303 302 302 301 300 302 303 305 308 311 314 313 313 316 319 322 325 325 326 326 327 328 328 327 326 326 325 325 324 324 323 321 321 321 322 322 322 323 324 323 320 320 321

GFSSE_925_thetae_168.txt.gz
Theta_e
342 337 338 339 338 336 334 329 328 333 335 334 332 331 330 333 333 330 330 328 328 329 330 331 332 333 333 333 335 335 334 333 331 331 331 331 330 329 327 325 324 325 326
342 339 338 338 338 337 331 329 329 327 331 333 331 330 330 332 331 328 328 328 328 327 327 331 331 331 331 332 333 331 330 330 330 330 329 328 329 328 326 325 325 325 328
342 339 338 338 338 335 332 332 333 332 326 326 332 329 329 332 330 328 327 326 328 326 327 327 329 331 330 328 329 328 327 327 327 328 329 327 326 327 326 325 325 325 325
341 341 338 338 338 335 333 333 333 333 328 329 332 329 327 327 328 327 326 326 326 327 325 327 326 326 329 327 325 326 326 325 326 327 326 326 325 326 326 325 324 323 324
341 342 340 336 338 336 333 333 333 332 330 328 329 327 326 327 329 326 326 325 325 326 325 326 325 325 324 326 327 324 324 324 327 326 326 325 324 323 324 323 324 323 322
341 340 340 336 337 336 333 334 333 332 331 332 333 331 329 325 329 326 325 325 325 325 326 326 325 325 324 324 328 326 325 325 327 326 324 324 322 323 322 322 322 321 322
340 340 338 337 337 336 333 334 333 333 332 330 330 333 331 327 324 326 325 325 324 324 324 325 324 324 323 323 327 327 325 325 327 326 323 323 323 321 322 321 321 321 321
339 339 339 337 337 336 334 334 334 333 332 331 329 329 333 329 326 324 325 324 324 324 324 324 324 324 322 323 327 326 323 322 323 324 324 324 323 319 321 320 320 319 320
339 339 339 338 336 336 335 334 334 333 331 330 329 328 333 331 327 325 325 325 324 324 324 324 322 323 323 323 324 325 323 321 323 324 323 323 324 321 321 320 320 319 319
339 339 339 339 337 337 336 335 334 333 331 330 329 328 329 331 329 326 325 325 324 324 324 323 322 320 322 322 322 322 323 321 319 323 323 323 323 321 322 321 319 319 319
339 339 339 337 338 337 337 336 337 336 331 330 329 328 328 329 328 327 327 326 325 325 324 323 322 321 317 321 321 320 321 320 321 323 323 323 323 321 322 321 320 320 319
339 339 339 339 338 337 337 337 336 335 334 332 330 329 328 328 328 328 328 328 326 325 325 324 323 323 321 315 316 320 320 320 320 322 322 323 322 321 322 322 321 320 319
338 338 339 339 339 339 337 336 336 335 334 333 333 332 331 330 329 328 328 329 328 326 325 325 324 323 323 320 318 319 322 322 322 322 322 322 322 321 321 324 322 321 320
332 333 335 338 338 339 339 338 336 336 335 334 334 333 333 332 330 329 328 328 328 328 326 326 326 324 324 324 321 320 320 321 322 322 321 321 321 320 319 323 324 322 320
324 325 327 331 335 338 337 337 337 336 335 335 334 334 333 333 331 330 329 327 326 328 327 327 326 326 325 325 324 323 322 319 319 321 321 320 320 320 319 322 323 325 322
320 320 320 322 326 332 336 338 336 336 337 335 335 334 334 333 332 331 329 329 327 326 327 326 326 326 325 325 325 324 323 321 320 319 319 320 320 321 320 318 322 323 326
319 318 318 319 320 324 329 334 337 337 335 337 336 335 334 333 333 332 331 330 329 327 326 326 326 325 325 325 325 324 324 323 322 321 320 319 320 320 321 320 318 322 323
318 317 318 318 319 320 322 326 330 333 335 335 335 333 334 334 333 332 331 331 330 329 328 327 326 326 325 325 324 324 324 324 323 322 322 321 320 320 320 320 319 317 321
316 315 316 316 317 318 319 322 325 328 330 333 335 335 333 333 333 332 332 331 330 330 329 328 327 326 326 325 325 324 323 323 323 323 323 322 321 320 320 320 320 319 318
314 315 315 315 315 316 317 318 322 325 328 330 332 334 334 333 333 332 332 332 331 331 330 329 328 327 327 326 326 325 324 323 323 322 322 322 322 321 320 319 320 320 319
314 314 314 315 316 317 315 316 320 324 326 328 329 332 332 329 329 329 330 330 331 331 331 330 329 328 327 327 326 326 325 325 324 323 322 322 322 322 321 320 320 320 320
312 310 310 311 313 315 320 319 316 320 324 325 328 330 330 330 329 327 327 327 327 327 328 329 330 328 328 328 326 324 323 323 324 324 324 324 323 322 322 322 321 320 321
309 307 307 309 310 313 316 322 317 318 321 323 326 327 328 329 327 326 326 326 326 326 326 327 328 328 327 327 327 325 323 323 324 325 325 325 324 323 323 322 322 321 321
307 305 304 305 307 308 313 321 323 324 324 323 325 327 327 327 328 328 327 326 326 326 326 326 326 327 326 326 326 326 325 325 326 326 326 326 324 323 323 322 321 321 320
305 304 302 301 303 304 306 311 313 315 316 317 321 322 321 321 324 324 324 324 325 326 327 327 326 326 326 325 325 325 324 323 323 322 324 323 324 324 324 324 322 321 321
302 302 300 299 299 301 301 303 305 304 304 304 305 306 306 307 307 309 309 311 313 317 318 322 325 326 325 326 325 325 324 322 321 321 322 322 322 322 322 323 323 323 322

GFSSE_925_thetae_171.txt.gz
Theta_e
338 337 338 336 333 331 327 327 331 333 334 331 330 330 333 333 332 329 328 327 327 329 330 332 333 333 332 334 334 333 330 330 329 329 329 330 329 328 326 323 325 326 327
338 337 338 338 334 331 328 327 327 331 332 333 328 330 332 332 328 328 327 327 326 327 331 331 331 331 332 332 331 329 329 329 329 329 327 326 328 327 326 325 326 326 325
338 337 338 338 336 331 331 332 330 326 330 332 332 325 330 330 329 328 326 327 327 326 327 328 329 330 326 329 328 326 326 326 326 327 327 325 325 327 325 325 325 324 324
340 336 337 338 336 333 332 333 332 328 328 334 333 327 323 330 327 326 326 325 326 325 326 328 328 325 325 325 325 325 325 325 326 325 325 325 323 326 325 325 324 324 323
340 340 336 337 337 333 333 333 332 329 329 333 330 328 325 328 327 326 325 324 325 325 325 326 325 324 323 325 326 323 323 325 326 325 324 324 322 324 324 323 324 323 322
341 341 338 336 337 334 333 333 332 331 329 331 331 329 330 327 327 325 325 324 324 326 326 325 324 324 323 324 328 325 324 326 325 324 323 323 321 322 322 322 322 321 321
340 338 338 336 337 334 333 333 332 332 331 329 331 332 328 326 326 326 324 324 324 323 324 324 324 323 323 323 328 327 324 324 325 324 323 323 324 318 321 321 321 321 321
338 337 336 336 336 335 333 333 333 332 332 331 328 329 332 327 325 324 324 324 324 323 324 323 323 323 321 323 326 325 323 321 323 323 323 323 323 322 317 318 320 319 320
338 337 337 336 336 335 334 333 333 332 331 331 330 328 332 330 326 325 325 324 324 323 322 323 322 322 322 322 324 324 323 321 323 323 323 323 322 322 319 317 319 319 319
338 337 337 337 336 335 335 334 334 333 331 330 329 328 329 331 329 326 325 325 324 323 323 323 322 320 320 322 321 322 322 321 319 322 323 323 323 322 321 318 318 319 319
339 338 337 337 336 336 335 335 334 335 334 330 329 328 327 329 329 327 326 325 324 324 324 324 323 322 319 317 321 320 319 318 316 322 322 323 323 322 322 320 320 320 319
338 338 338 337 337 336 336 335 335 335 335 333 330 329 328 327 327 328 329 327 326 326 325 324 324 323 322 320 314 315 319 320 318 320 322 322 322 322 322 322 322 320 320
339 338 338 338 338 338 336 336 335 334 334 333 333 333 332 330 329 328 328 328 328 327 326 325 324 324 323 322 321 314 318 321 321 321 322 322 322 322 321 322 324 323 321
335 337 338 337 337 337 338 337 335 334 334 333 333 332 332 332 331 329 329 327 328 328 327 326 325 324 324 322 323 319 319 320 321 321 321 321 321 321 320 322 324 325 323
325 327 332 335 335 335 336 337 336 335 335 334 333 333 333 332 332 331 329 328 328 327 327 327 326 325 325 324 324 324 322 321 319 320 321 321 321 320 320 322 323 324 325
320 319 319 319 324 335 336 336 336 336 335 335 334 333 333 332 332 332 331 330 329 327 326 327 327 326 326 326 325 325 324 324 323 322 319 318 319 320 320 320 323 323 323
318 318 318 318 318 319 325 334 335 334 335 334 337 335 333 333 332 332 332 331 330 329 328 326 326 326 326 325 325 325 325 324 324 323 322 321 320 319 319 320 321 323 323
317 317 317 317 317 318 319 320 324 332 334 335 335 335 335 333 332 332 332 331 330 329 329 328 327 326 326 326 325 325 324 324 324 324 323 323 322 321 321 319 319 320 321
316 316 315 315 315 316 317 318 321 324 328 331 334 334 334 334 332 331 332 331 331 330 330 329 328 327 326 326 326 325 325 324 324 323 323 323 323 323 322 322 320 319 320
314 314 314 315 315 315 315 316 317 319 323 327 329 331 333 332 331 331 333 332 332 332 331 331 330 329 328 327 327 326 325 325 325 324 323 323 323 322 322 322 321 321 320
313 313 313 313 314 316 318 315 316 320 322 324 326 328 331 333 331 328 327 328 330 331 330 330 330 330 329 329 327 327 327 327 326 326 325 325 324 324 323 322 322 322 321
311 310 310 310 312 314 317 320 318 317 322 323 326 329 330 330 328 327 326 326 326 327 327 326 326 328 329 329 327 325 324 324 325 325 325 325 325 324 323 323 322 322 322
308 307 307 308 309 312 320 321 318 318 320 326 326 327 328 329 329 328 327 327 326 326 326 325 326 326 327 327 327 326 324 323 322 324 325 325 325 325 325 324 324 323 323
306 304 304 306 307 310 315 319 320 320 319 315 316 317 321 324 325 324 325 326 326 326 326 326 326 326 325 326 326 326 325 325 325 325 324 325 324 324 324 324 324 323 323
305 302 302 304 304 307 310 313 313 311 310 310 311 312 310 313 312 312 313 314 315 314 315 318 322 324 325 325 325 325 325 324 324 323 324 323 323 323 323 323 323 323 323
303 301 300 301 301 302 305 306 305 304 304 306 306 307 305 304 303 302 302 303 305 306 307 309 312 314 320 322 323 324 323 322 322 321 321 322 322 322 321 322 322 322 322

GFSSE_925_thetae_174.txt.gz
Theta_e
338 338 338 335 330 328 332 335 334 334 334 330 330 333 333 331 329 328 326 326 327 328 332 333 334 333 334 333 331 330 330 330 329 329 329 329 328 327 326 326 325 326 325
337 339 337 337 333 330 328 332 333 333 334 334 331 332 332 330 328 327 326 325 327 330 332 331 331 332 332 330 328 328 328 327 327 326 325 326 327 327 326 326 324 325 325
337 338 338 336 332 330 330 327 330 332 333 332 331 332 332 331 329 328 326 325 326 326 329 330 327 325 329 327 326 325 325 326 326 326 325 324 325 326 325 324 324 324 323
336 337 338 336 332 331 332 331 328 326 331 333 330 330 330 327 328 327 326 327 326 326 328 330 325 322 323 324 325 325 325 326 325 325 324 323 321 325 325 325 324 322 322
336 336 337 337 333 332 332 331 329 328 332 331 329 329 331 328 326 326 326 324 325 325 326 328 326 323 323 324 323 322 324 325 325 323 323 323 317 322 323 323 324 323 321
339 336 335 337 335 332 333 332 330 328 329 329 329 328 327 329 327 323 324 325 326 325 327 324 323 323 323 325 326 324 324 325 324 323 323 322 323 320 321 322 323 320 320
340 338 337 336 336 333 333 332 332 331 329 330 332 330 327 327 326 325 324 323 324 325 324 325 323 322 323 325 327 324 323 325 323 323 323 322 322 321 318 321 321 321 320
337 337 336 335 336 334 333 333 332 332 331 329 329 332 329 326 326 325 323 322 323 322 323 324 322 321 322 322 326 324 322 322 322 322 323 322 322 321 320 317 320 319 320
336 336 336 335 335 335 333 333 333 331 331 331 330 328 331 329 326 325 324 323 322 321 323 322 322 320 321 322 323 324 323 321 322 322 322 323 322 322 322 316 318 319 319
337 336 336 336 335 335 334 333 333 332 331 330 330 329 328 332 329 325 325 324 324 323 323 322 321 320 319 320 321 322 323 321 318 321 321 322 322 323 323 321 316 320 319
337 337 336 336 335 335 335 334 334 334 334 332 329 329 328 329 330 328 326 325 325 324 323 323 323 323 321 317 318 320 319 318 317 316 321 322 322 324 323 322 318 319 320
338 338 337 336 336 336 335 335 335 334 334 334 332 329 328 327 328 329 327 327 326 325 325 324 324 323 323 321 318 314 316 316 318 317 319 321 322 324 325 324 323 321 321
337 337 337 337 337 337 336 335 334 333 333 333 332 332 332 330 328 328 327 328 328 327 326 325 325 324 323 323 322 321 317 315 320 321 318 321 322 323 325 325 324 323 323
337 338 337 337 337 337 337 336 336 334 333 332 332 332 331 331 331 331 328 328 327 328 328 327 326 325 324 324 323 323 320 317 318 320 321 321 321 321 324 325 324 323 324
336 336 337 337 337 336 336 336 337 335 334 333 332 332 331 331 331 331 332 330 328 328 327 327 327 327 325 325 324 324 324 323 322 321 320 319 320 321 321 323 323 324 324
323 323 324 329 334 337 337 336 335 336 335 335 334 333 332 331 331 331 331 332 331 329 328 327 326 327 326 326 326 325 325 324 324 324 323 323 321 319 318 319 322 323 324
319 318 317 317 317 318 320 333 336 336 335 335 334 335 335 333 332 330 331 330 330 330 329 328 327 326 326 326 326 325 325 325 324 324 324 323 323 323 322 321 319 321 323
318 317 317 317 316 316 317 319 320 327 334 334 334 333 335 336 333 331 330 331 330 330 329 329 329 328 327 326 326 326 325 325 325 325 324 324 323 323 323 322 322 321 321
317 316 316 315 315 315 316 316 317 320 323 326 332 335 334 334 332 331 330 329 331 331 331 330 330 329 328 328 327 327 326 326 326 326 325 325 324 324 323 323 323 322 322
315 315 314 314 314 314 314 315 315 317 319 322 326 329 332 332 330 331 331 330 331 331 332 331 331 331 330 330 328 328 327 327 327 327 327 326 326 325 325 324 323 322 322
313 313 313 312 313 313 315 317 315 317 321 322 325 327 329 331 330 330 327 326 325 326 328 329 329 329 328 328 328 327 327 328 327 327 327 326 325 325 325 324 323 323 323
311 311 311 311 312 313 315 318 318 317 320 323 327 328 329 331 331 328 326 326 325 325 326 326 326 326 326 326 327 326 324 325 325 325 325 325 324 324 324 324 324 323 323
309 309 309 310 311 313 319 320 318 316 324 324 325 326 327 328 327 328 326 327 326 326 326 326 326 326 326 326 326 325 324 324 321 324 324 324 324 324 324 324 324 323 323
306 306 307 308 310 313 318 320 321 321 317 314 315 317 318 319 321 321 322 321 322 322 324 323 324 324 325 326 325 325 325 324 323 324 323 323 322 322 323 323 322 322 322
304 304 304 306 308 310 313 316 318 316 312 310 310 312 310 309 308 309 311 311 313 312 313 314 317 319 321 323 324 324 324 323 323 322 322 321 321 319 320 319 320 321 321
301 301 302 304 304 306 308 309 310 310 308 308 307 307 305 304 303 302 302 303 304 304 305 306 308 311 313 315 317 316 311 314 315 317 319 318 319 318 318 318 317 316 319